星链-35182 (STARLINK-35182)

导读 | 豆包AI

STARLINK-35182是美国于2025年9月5日发射的星链卫星,隶属于SpaceX公司的星链互联网星座项目。星链计划旨在通过近地轨道卫星群搭建全球卫星互联网系统,为全球提供高速低延迟的宽带网络服务,覆盖偏远缺网地区,补充地面通信网络覆盖盲区,该卫星的发射进一步扩充了星链星座的在轨卫星规模。

Basic Information
目录编号:
65504
目录名称:
STARLINK-35182
国际标识:
2025-198N
轨道中心:
EARTH
卫星名称:
星链-35182
卫星全名:
星链-35182 (STARLINK-35182)
卫星状态:
在轨 (已飞行190 天)
发射日期:
2025-09-05 UTC
国别 :
美国 (US)
星等 :
--
Orbit Information
数据来源 国际轨道数据 AOE轨道数据
星历时间 2026-03-13T20:34:24+0800
1天前
查看轨道信息
2026-03-12T03:00:00+0800
2天前
查看轨道信息
半长轴 6853.282km 6853.38km
偏心率 0.00013 0.000063
轨道倾角 53.157° 53.157°
近地点辐角 72.044° 71.081°
升交点赤经 253.430° 261.481°
平近点角 288.070° 101.436°
近地点 474.254km 474.811km
远地点 476.036km 475.675km
周期 94.104分钟 94.106分钟
每日圈数 15.302236 15.301909
Detailed Information
固有亮度:
5
最大亮度:
2.5
卫星平台:
Starlink V1.0
覆盖范围:
全球
运营商:
太空探索技术公司
运营商所在国:
美国
制造商(研发单位):
太空探索技术公司
制造商所在国:
美国
使用方式:
暂无
Satellite Introduction
Starlink 计划是 SpaceX 推出的全球卫星互联网项目,通过发射低轨道卫星,为全球尤其是偏远地区提供高速、低延迟的互联网服务。自 2019 年起,Starlink 已部署数千颗卫星,旨在缩小全球数字鸿沟,推动互联网普及。该项目还为军事、航空等行业提供通信支持,带来广泛经济效益。
2D Orbit Map
3D Orbit Map
Orbit Altitude Analysis Chart
Orbit Inclination Analysis Chart
Orbit Comprehensive Analysis Chart
View Comprehensive Chart